When you browse on this site, cookies collect data to enhance your experience and personalize the content and advertising you see.
Visit our Privacy Policy to learn more. By continuing to use the site, you agree to this use of cookies and data.
  • In Austria
  • List of Countries
  • For 7 days
  • Water Temperature
  • Weather Map
  • News
  • Weather Widgets
  • user-avatar
    Login

    Hourly Weather Kutaisi

    Today, 26 January, Sunday

    Time Temperature Precipitation Wind Pressure Humidity
    00:00 +1°C° 0 mm 2 mps 754 mmHg 66%
    01:00 +1°C° 0 mm 2 mps 754 mmHg 65%
    02:00 +1°C° 0 mm 2 mps 754 mmHg 65%
    03:00 +1°C° 0 mm 2 mps 754 mmHg 64%
    04:00 +1°C° 0 mm 2 mps 754 mmHg 63%
    05:00 +1°C° 0 mm 2 mps 754 mmHg 63%
    06:00 +1°C° 0 mm 1 mps 754 mmHg 63%
    07:00 +2°C° 0 mm 1 mps 754 mmHg 62%
    08:00 +3°C° 0 mm 1 mps 754 mmHg 61%
    09:00 +4°C° 0 mm 1 mps 754 mmHg 59%
    10:00 +5°C° 0 mm 1 mps 754 mmHg 57%
    11:00 +6°C° 0 mm 1 mps 754 mmHg 55%
    12:00 +8°C° 0 mm 1 mps 754 mmHg 53%
    13:00 +8°C° 0 mm 1 mps 754 mmHg 55%
    14:00 +8°C° 0 mm 1 mps 754 mmHg 57%
    15:00 +7°C° 0 mm 2 mps 754 mmHg 60%
    16:00 +7°C° 0 mm 1 mps 754 mmHg 65%
    17:00 +5°C° 0 mm 1 mps 755 mmHg 70%
    18:00 +4°C° 0 mm 1 mps 755 mmHg 75%
    19:00 +4°C° 0 mm 1 mps 755 mmHg 75%
    20:00 +3°C° 0 mm 1 mps 756 mmHg 75%
    21:00 +3°C° 0 mm 1 mps 756 mmHg 75%
    22:00 +3°C° 0 mm 1 mps 756 mmHg 75%
    23:00 +3°C° 0 mm 1 mps 756 mmHg 75%

    Tomorrow, 27 January, Monday

    Time Temperature Precipitation Wind Pressure Humidity
    00:00 +2°C° 0 mm 2 mps 756 mmHg 75%
    01:00 +2°C° 0 mm 2 mps 756 mmHg 74%
    02:00 +2°C° 0 mm 2 mps 756 mmHg 73%
    03:00 +2°C° 0 mm 2 mps 756 mmHg 71%
    04:00 +2°C° 0 mm 2 mps 756 mmHg 70%
    05:00 +2°C° 0 mm 2 mps 756 mmHg 69%
    06:00 +2°C° 0 mm 2 mps 756 mmHg 68%
    07:00 +2°C° 0 mm 2 mps 756 mmHg 66%
    08:00 +3°C° 0 mm 2 mps 756 mmHg 64%
    09:00 +4°C° 0 mm 2 mps 756 mmHg 62%
    10:00 +5°C° 0 mm 3 mps 756 mmHg 60%
    11:00 +7°C° 0 mm 3 mps 755 mmHg 57%
    12:00 +9°C° 0 mm 3 mps 755 mmHg 55%
    13:00 +9°C° 0 mm 3 mps 754 mmHg 56%
    14:00 +10°C° 0 mm 3 mps 754 mmHg 56%
    15:00 +10°C° 0 mm 3 mps 753 mmHg 57%
    16:00 +8°C° 0 mm 3 mps 753 mmHg 59%
    17:00 +7°C° 0 mm 3 mps 754 mmHg 61%
    18:00 +5°C° 0 mm 4 mps 754 mmHg 63%
    19:00 +5°C° 0 mm 4 mps 754 mmHg 62%
    20:00 +4°C° 0 mm 4 mps 754 mmHg 61%
    21:00 +4°C° 0 mm 4 mps 754 mmHg 60%
    22:00 +4°C° 0 mm 4 mps 753 mmHg 59%
    23:00 +4°C° 0 mm 4 mps 753 mmHg 58%

    Day after tomorrow, 28 January, Tuesday

    Time Temperature Precipitation Wind Pressure Humidity
    00:00 +4°C° 0 mm 4 mps 753 mmHg 57%
    01:00 +4°C° 0 mm 4 mps 753 mmHg 56%
    02:00 +4°C° 0 mm 4 mps 752 mmHg 55%
    03:00 +4°C° 0 mm 4 mps 752 mmHg 54%
    04:00 +4°C° 0 mm 4 mps 752 mmHg 54%
    05:00 +3°C° 0 mm 5 mps 752 mmHg 53%
    06:00 +3°C° 0 mm 5 mps 751 mmHg 52%
    07:00 +5°C° 0 mm 5 mps 751 mmHg 51%
    08:00 +6°C° 0 mm 5 mps 751 mmHg 50%
    09:00 +6°C° 0 mm 5 mps 751 mmHg 49%
    10:00 +8°C° 0 mm 5 mps 750 mmHg 47%
    11:00 +9°C° 0 mm 5 mps 749 mmHg 46%
    12:00 +12°C° 0 mm 5 mps 749 mmHg 44%
    13:00 +12°C° 0 mm 5 mps 748 mmHg 45%
    14:00 +12°C° 0 mm 5 mps 748 mmHg 46%
    15:00 +12°C° 0 mm 5 mps 747 mmHg 47%
    16:00 +10°C° 0 mm 5 mps 747 mmHg 48%
    17:00 +10°C° 0 mm 4 mps 748 mmHg 50%
    18:00 +8°C° 0 mm 4 mps 748 mmHg 51%
    19:00 +8°C° 0 mm 4 mps 748 mmHg 51%
    20:00 +8°C° 0 mm 4 mps 748 mmHg 51%
    21:00 +7°C° 0 mm 4 mps 748 mmHg 52%
    22:00 +7°C° 0 mm 4 mps 748 mmHg 52%
    23:00 +8°C° 0 mm 3 mps 748 mmHg 53%

    29 January, Wednesday

    Time Temperature Precipitation Wind Pressure Humidity
    00:00 +7°C° 0 mm 3 mps 748 mmHg 54%
    01:00 +7°C° 0 mm 3 mps 748 mmHg 55%
    02:00 +7°C° 0 mm 2 mps 748 mmHg 56%
    03:00 +7°C° 0 mm 2 mps 748 mmHg 57%
    04:00 +6°C° 0 mm 2 mps 748 mmHg 58%
    05:00 +6°C° 0 mm 2 mps 748 mmHg 60%
    06:00 +7°C° 0 mm 1 mps 748 mmHg 61%
    07:00 +7°C° 0 mm 1 mps 748 mmHg 61%
    08:00 +8°C° 0 mm 1 mps 749 mmHg 62%
    09:00 +8°C° 0 mm 1 mps 749 mmHg 62%
    10:00 +9°C° 0 mm 1 mps 748 mmHg 62%
    11:00 +10°C° 0 mm 1 mps 748 mmHg 63%
    12:00 +11°C° 0 mm 1 mps 748 mmHg 63%
    13:00 +11°C° 0 mm 1 mps 747 mmHg 64%
    14:00 +11°C° 0 mm 1 mps 747 mmHg 64%
    15:00 +11°C° 0 mm 1 mps 747 mmHg 65%
    16:00 +11°C° 0 mm 1 mps 747 mmHg 68%
    17:00 +10°C° 0 mm 1 mps 748 mmHg 72%
    18:00 +8°C° 0 mm 2 mps 748 mmHg 75%
    19:00 +8°C° 0 mm 2 mps 748 mmHg 75%
    20:00 +7°C° 0 mm 2 mps 748 mmHg 74%
    21:00 +7°C° 0 mm 2 mps 749 mmHg 73%
    22:00 +7°C° 0 mm 3 mps 749 mmHg 72%
    23:00 +5°C° 0 mm 3 mps 749 mmHg 70%

    30 January, Thursday

    Time Temperature Precipitation Wind Pressure Humidity
    00:00 +5°C° 0 mm 3 mps 749 mmHg 68%
    01:00 +5°C° 0 mm 3 mps 749 mmHg 67%
    02:00 +5°C° 0 mm 3 mps 749 mmHg 66%
    03:00 +5°C° 0 mm 3 mps 749 mmHg 65%
    04:00 +4°C° 0 mm 3 mps 749 mmHg 64%
    05:00 +4°C° 0 mm 3 mps 749 mmHg 63%
    06:00 +4°C° 0 mm 3 mps 749 mmHg 63%
    07:00 +5°C° 0 mm 3 mps 749 mmHg 61%
    08:00 +7°C° 0 mm 3 mps 749 mmHg 60%
    09:00 +7°C° 0 mm 3 mps 749 mmHg 59%
    10:00 +9°C° 0 mm 3 mps 748 mmHg 56%
    11:00 +10°C° 0 mm 3 mps 748 mmHg 53%
    12:00 +11°C° 0 mm 3 mps 747 mmHg 50%
    13:00 +12°C° 0 mm 3 mps 747 mmHg 50%
    14:00 +12°C° 0 mm 3 mps 746 mmHg 50%
    15:00 +12°C° 0 mm 3 mps 746 mmHg 51%
    16:00 +11°C° 0 mm 3 mps 746 mmHg 53%
    17:00 +10°C° 0 mm 3 mps 746 mmHg 56%
    18:00 +9°C° 0 mm 3 mps 746 mmHg 59%
    19:00 +9°C° 0.1 mm 3 mps 746 mmHg 61%
    20:00 +9°C° 0.1 mm 3 mps 745 mmHg 63%
    21:00 +8°C° 0.1 mm 3 mps 745 mmHg 65%
    22:00 +8°C° 0.1 mm 3 mps 745 mmHg 67%
    23:00 +8°C° 0.1 mm 3 mps 745 mmHg 68%

    31 January, Friday

    Time Temperature Precipitation Wind Pressure Humidity
    00:00 +8°C° 0.1 mm 3 mps 745 mmHg 70%
    01:00 +8°C° 0.1 mm 3 mps 745 mmHg 70%
    02:00 +7°C° 0.1 mm 3 mps 745 mmHg 69%
    03:00 +7°C° 0.1 mm 3 mps 745 mmHg 69%
    04:00 +7°C° 0.1 mm 2 mps 745 mmHg 71%
    05:00 +8°C° 0.1 mm 1 mps 745 mmHg 72%
    06:00 +7°C° 0.1 mm 1 mps 744 mmHg 74%
    07:00 +8°C° 0 mm 1 mps 744 mmHg 73%
    08:00 +8°C° 0 mm 1 mps 744 mmHg 73%
    09:00 +8°C° 0 mm 1 mps 744 mmHg 72%
    10:00 +9°C° 0 mm 1 mps 744 mmHg 68%
    11:00 +10°C° 0 mm 1 mps 744 mmHg 65%
    12:00 +10°C° 0 mm 1 mps 744 mmHg 61%
    13:00 +10°C° 0.1 mm 1 mps 744 mmHg 68%
    14:00 +8°C° 0.1 mm 2 mps 744 mmHg 74%
    15:00 +8°C° 0.1 mm 2 mps 743 mmHg 81%
    16:00 +7°C° 0.4 mm 2 mps 744 mmHg 85%
    17:00 +8°C° 0.4 mm 1 mps 744 mmHg 89%
    18:00 +7°C° 0.4 mm 1 mps 744 mmHg 93%
    19:00 +7°C° 0.2 mm 1 mps 744 mmHg 93%
    20:00 +7°C° 0.2 mm 1 mps 744 mmHg 93%
    21:00 +7°C° 0.2 mm 1 mps 745 mmHg 93%
    22:00 +7°C° 0.2 mm 1 mps 744 mmHg 93%
    23:00 +7°C° 0.2 mm 1 mps 744 mmHg 93%
    Show more